Location: Dortmund
(51.5019°N, 7.6520°E)
Time: 17:02:57
(UTC+01:00)

ISS - Pass Details

Date: 22 March 2017
Orbit: 399 x 409 km, 51.6° (Epoch: 25 March)

Event Time Altitude Azimuth Distance (km) Brightness Sun altitude
Exits shadow 05:19:44 15° 224° (SW) 1,218 -1.9 -11.2°
Maximum altitude 05:19:56 15° 220° (SW) 1,214 -1.9 -11.2°
Drops below altitude 10° 05:21:53 10° 183° (S) 1,469 -1.2 -10.9°
Sets 05:24:36 0° 159° (SSE) 2,326 0.1 -10.5°
